Location: Tamazert
(32.6352°N, 5.2072°W)
Time: 16:31:45
(UTC+00:00)

GPS 2-04 Rocket1 - Pass Details

Date: 22 May 2022
Orbit: 404 x 514 km, 35.6° (Epoch: 29 June)

Event Time Altitude Azimuth Distance (km) Brightness Sun altitude
Exits shadow 02:36:40 - 111° (ESE) 2,286 6.2 -27.4°
Enters shadow 03:34:50 -68° 251° (WSW) 12,281 9.6 -19.1°
Maximum altitude 04:12:13 30° 152° (SSE) 818 3.6 -12.9°
